TimeEDT,TemperatureF,Dew PointF,Humidity,Sea Level PressureIn,VisibilityMPH,Wind Direction,Wind SpeedMPH,Gust SpeedMPH,PrecipitationIn,Events,Conditions,WindDirDegrees,DateUTC
12:53 AM,66.9,64.0,90,29.92,7.0,Calm,Calm,-,N/A,,Partly Cloudy,0,2013-08-28 04:53:00
1:53 AM,64.9,63.0,93,29.90,5.0,Calm,Calm,-,N/A,,Clear,0,2013-08-28 05:53:00
2:51 AM,64.4,62.6,94,29.90,1.8,Calm,Calm,-,N/A,,Clear,0,2013-08-28 06:51:00
2:53 AM,64.9,63.0,93,29.89,1.5,Calm,Calm,-,N/A,,Clear,0,2013-08-28 06:53:00
3:01 AM,64.4,62.6,94,29.90,3.0,Calm,Calm,-,N/A,,Clear,0,2013-08-28 07:01:00
3:42 AM,62.6,60.8,94,29.89,2.0,Calm,Calm,-,N/A,,Partly Cloudy,0,2013-08-28 07:42:00
3:51 AM,62.6,60.8,94,29.89,7.0,Calm,Calm,-,N/A,,Partly Cloudy,0,2013-08-28 07:51:00
3:53 AM,63.0,61.0,93,29.88,8.0,Calm,Calm,-,N/A,,Partly Cloudy,0,2013-08-28 07:53:00
4:53 AM,63.0,61.0,93,29.89,6.0,SW,3.5,-,N/A,,Partly Cloudy,230,2013-08-28 08:53:00
5:53 AM,62.1,59.0,90,29.90,5.0,Calm,Calm,-,N/A,,Scattered Clouds,0,2013-08-28 09:53:00
6:53 AM,63.0,60.1,90,29.91,5.0,Calm,Calm,-,N/A,,Clear,0,2013-08-28 10:53:00
7:53 AM,69.1,64.0,84,29.91,7.0,Calm,Calm,-,N/A,,Partly Cloudy,0,2013-08-28 11:53:00
8:53 AM,71.1,64.9,81,29.91,8.0,Calm,Calm,-,N/A,,Scattered Clouds,0,2013-08-28 12:53:00
9:53 AM,78.1,66.0,66,29.91,10.0,NNE,3.5,-,N/A,,Clear,30,2013-08-28 13:53:00
10:53 AM,80.1,64.9,60,29.90,10.0,Calm,Calm,-,N/A,,Clear,0,2013-08-28 14:53:00
11:53 AM,82.0,66.0,58,29.89,10.0,Calm,Calm,-,N/A,,Clear,0,2013-08-28 15:53:00
12:53 PM,82.9,64.9,54,29.88,10.0,South,4.6,-,N/A,,Mostly Cloudy,190,2013-08-28 16:53:00
1:53 PM,82.9,66.0,56,29.87,10.0,ESE,3.5,-,N/A,,Overcast,120,2013-08-28 17:53:00
2:53 PM,81.0,66.9,62,29.87,10.0,SE,5.8,-,0.00,,Partly Cloudy,140,2013-08-28 18:53:00
3:03 PM,80.6,66.2,61,29.88,10.0,SSE,4.6,-,N/A,Thunderstorm,Partly Cloudy,150,2013-08-28 19:03:00
3:13 PM,80.6,66.2,61,29.88,10.0,SSE,3.5,-,N/A,Thunderstorm,Clear,160,2013-08-28 19:13:00
3:19 PM,80.6,66.2,61,29.88,10.0,WSW,15.0,19.6,N/A,Thunderstorm,Partly Cloudy,250,2013-08-28 19:19:00
3:53 PM,73.9,64.0,71,29.89,10.0,WSW,12.7,-,N/A,Thunderstorm,Mostly Cloudy,250,2013-08-28 19:53:00
4:53 PM,73.9,66.9,79,29.88,9.0,WSW,5.8,-,N/A,Thunderstorm,Clear,240,2013-08-28 20:53:00
5:00 PM,73.4,66.2,78,29.89,9.0,SW,8.1,-,N/A,,Clear,230,2013-08-28 21:00:00
5:53 PM,73.9,66.9,79,29.89,9.0,WSW,3.5,-,N/A,,Clear,250,2013-08-28 21:53:00
6:53 PM,73.9,66.0,76,29.89,10.0,ENE,3.5,-,N/A,,Clear,60,2013-08-28 22:53:00
7:53 PM,71.1,66.0,84,29.89,9.0,Calm,Calm,-,N/A,,Clear,0,2013-08-28 23:53:00
8:53 PM,69.1,66.0,90,29.91,7.0,WSW,3.5,-,N/A,,Clear,240,2013-08-29 00:53:00
9:53 PM,68.0,64.9,90,29.92,7.0,Calm,Calm,-,N/A,,Clear,0,2013-08-29 01:53:00
10:53 PM,68.0,64.9,90,29.91,7.0,Calm,Calm,-,N/A,,Clear,0,2013-08-29 02:53:00
11:53 PM,66.0,63.0,90,29.92,6.0,Calm,Calm,-,N/A,,Clear,0,2013-08-29 03:53:00